Location: Rock Island IL
(41.5000°N, 90.5500°W)
Time: 21:10:59
(UTC-05:00)

Daily predictions for brighter satellites

Satellite Brightness Start Highest point End
(mag) Time Altitude Azimuth Time Altitude Azimuth Time Altitude Azimuth
Cosmos 1515 Rocket 3.8 21:04:17 10° N 21:08:40 53° E 21:12:58 10° SSE
DELTA 2 R/B (1) 3.6 21:03:59 10° W 21:09:31 71° S 21:15:02 10° ESE
H-2A R/B 4.0 21:07:46 10° S 21:11:25 41° W 21:15:03 10° NNW
Cosmos 1777 Rocket 4.1 21:10:55 10° S 21:16:04 56° ESE 21:21:12 10° NNE
PSLV R/B 4.3 21:16:34 10° SE 21:19:16 28° ENE 21:21:58 10° N
COSMOS 2428 4.2 21:14:57 10° N 21:19:29 24° NE 21:23:58 10° ESE
ATLAS 5 CENTAUR R/B 4.2 21:15:14 10° WSW 21:19:34 30° NW 21:24:14 10° NNE
SJ-11-01 4.4 21:16:06 10° S 21:20:48 81° WSW 21:25:34 10° NNW
Cosmos 2266 Rocket 4.3 21:15:52 10° SSE 21:21:56 51° E 21:27:56 10° NNE
AVUM R/B 3.1 21:19:59 10° S 21:22:05 32° ESE 21:24:21 10° NE
Meteor 1-21 Rocket 4.2 21:16:42 10° S 21:22:14 77° E 21:27:46 10° NNE
Cosmos 2151 3.9 21:19:40 10° SSE 21:23:20 30° E 21:27:02 10° NNE
Cosmos 1553 Rocket 4.2 21:17:11 10° N 21:23:38 86° W 21:29:57 10° S
Cosmos 405 3.7 21:20:45 10° N 21:24:12 40° ENE 21:27:36 10° SSE
NOSS 3-1 (C) 4.4 21:21:29 10° SSE 21:25:58 23° ESE 21:30:44 10° ENE
YAOGAN 6 3.9 21:23:34 10° SE 21:26:38 26° ENE 21:29:41 10° NNE
Cosmos 304 Rocket 4.4 21:23:13 10° N 21:27:49 42° ENE 21:32:12 11° SE
H-2A R/B 4.0 21:30:27 10° E 21:33:49 17° ENE 21:37:14 10° NNE
Cosmos 1151 Rocket 3.2 21:30:03 10° N 21:34:18 58° E 21:38:33 10° SSE
Cosmos 2219 Rocket 4.1 21:32:17 10° N 21:35:50 17° NE 21:39:22 10° E
CZ-2C R/B 1.9 21:35:23 10° SSW 21:36:48 23° W 21:38:13 10° NW
MetOp-A 4.3 21:34:01 10° SSE 21:39:15 59° ENE 21:44:31 10° N
ARGOS 4.0 21:37:03 12° SE 21:41:38 37° ENE 21:46:32 10° N
Cosmos 1680 Rocket 3.7 21:39:56 10° NNW 21:45:08 60° ENE 21:49:36 14° SE
SPOT 1/Viking Rocket 4.0 21:41:07 12° SE 21:45:32 46° ENE 21:50:27 10° N
Cosmos 923 Rocket 4.0 21:43:38 10° NNW 21:48:52 84° ENE 21:53:33 13° SSE
Cosmos 2058 3.6 21:46:02 13° SSE 21:49:13 35° E 21:52:58 10° NNE
CZ-4B R/B 3.8 21:48:02 10° NNE 21:53:12 52° E 21:58:15 10° S
H-2A R/B 3.1 21:49:28 10° S 21:53:49 46° W 21:58:12 10° NNW
Cosmos 2219 3.4 21:49:46 10° S 21:55:17 50° ESE 22:00:49 10° NE
Cosmos 1707 Rocket 4.3 21:51:15 10° N 21:55:18 36° ENE 21:58:04 18° SE
Terra 3.4 21:55:46 13° ESE 21:58:41 21° ENE 22:02:16 10° NNE
SL-14 R/B 4.3 21:56:58 18° SE 21:59:02 29° E 22:02:30 10° NNE
Cosmos 1666 Rocket 4.4 21:56:36 17° SE 21:59:20 33° E 22:03:19 10° NNE
Cosmos 1898 Rocket 4.4 21:56:18 16° SSE 21:59:30 28° E 22:03:54 10° NE
CZ-4 SHROUD 3.5 21:57:27 13° S 22:00:06 63° WSW 22:03:13 10° NNW
Cosmos 1726 3.3 21:57:36 10° NNE 22:00:57 29° ENE 22:02:46 20° ESE
Cosmos 1271 Rocket 4.4 21:58:48 10° NNE 22:01:37 19° ENE 22:03:14 15° ESE
Nadezhda 2 Rocket 4.4 21:55:37 10° S 22:01:42 70° E 22:07:47 10° NNE
Cosmos 2322 3.7 21:57:54 10° NNW 22:03:40 86° WSW 22:08:14 16° SSE
Cosmos 2237 Rocket 4.0 22:00:26 10° N 22:04:26 19° NE 22:08:26 10° E
Cosmos 2322 Rocket 3.9 22:02:54 10° NW 22:07:33 27° WSW 22:12:10 10° SSW
USA 229 DEB 4.2 22:01:59 10° SW 22:08:51 65° NW 22:15:51 10° NNE
USA 229 4.2 22:02:05 10° SW 22:08:57 65° NW 22:15:57 10° NNE
CZ-4 R/B 4.0 22:07:51 10° NNE 22:12:44 56° E 22:16:33 16° S
SL-16 R/B 4.1 22:13:05 10° NW 22:17:35 24° WSW 22:22:02 10° SSW
Cosmos 2360 Rocket 2.5 22:12:29 10° NNW 22:18:04 64° WSW 22:22:22 17° S
NOAA 11 4.2 22:16:38 20° SSE 22:20:30 76° ENE 22:25:58 10° N
NOSS 3-1 (A) 3.5 22:22:45 10° SSW 22:28:23 52° ESE 22:34:36 10° NE
Meteor 1-11 4.2 22:25:07 13° S 22:30:18 81° E 22:36:04 10° NNE
USA 32 4.2 22:26:07 10° N 22:31:17 55° E 22:34:01 27° SSE
Meteor 1-4 Rocket 3.0 22:29:23 10° N 22:33:03 47° ENE 22:34:10 35° SE
Delta 2 Rocket 3.9 22:32:41 10° WSW 22:35:08 27° SSW 22:35:08 27° SSW
Cosmos 2242 Rocket 3.7 22:32:44 10° N 22:37:11 62° E 22:39:06 32° SSE
SPOT 5 4.4 22:34:52 10° SSW 22:38:45 28° W 22:42:50 10° NW
Cosmos 1626 3.5 22:40:11 24° E 22:40:17 24° E 22:43:21 10° NE
SL-08 RB Rocket 3.8 22:40:45 27° S 22:43:11 71° W 22:47:40 10° NNW
Cosmos 2227 Rocket 3.0 22:42:28 28° SE 22:44:00 32° ESE 22:48:58 10° NE
Cosmos 1300 3.1 22:40:28 10° NNW 22:44:15 57° W 22:46:04 28° SSW
DELTA 2 DEB (DPAF) 4.1 22:42:51 31° SSE 22:44:59 88° WSW 22:49:31 10° NNW
USA 245 4.2 22:48:00 20° SW 22:48:40 22° W 22:50:43 10° NW
SL-23 DEB 4.0 22:46:43 10° WNW 22:51:01 46° SW 22:51:39 41° SSW
ATLAS 2AS CENTAUR R/B 3.6 22:48:09 26° SSE 22:51:02 35° ESE 22:58:00 10° NE
Cosmos 2333 Rocket 2.8 22:46:53 10° NNW 22:52:26 47° ENE 22:55:11 27° ESE
Cosmos 2298 Rocket 4.1 22:48:24 12° SSW 22:53:19 79° WNW 22:58:41 10° NNE
Cosmos 1862 Rocket 4.2 22:49:36 10° N 22:53:44 41° ENE 22:54:46 35° ESE
DELTA 2 R/B (1) 4.1 22:50:29 10° W 22:55:38 40° SSW 22:57:08 33° SSE
CARTOSAT-1 3.5 22:54:18 40° SSE 22:55:48 80° ENE 23:00:07 10° N
SL-16 R/B 4.0 22:52:06 10° N 22:56:26 22° NE 22:59:45 14° E
Sich 1 3.5 22:56:57 21° SSW 22:59:44 59° W 23:04:07 10° N
Cosmos 1633 Rocket 3.4 22:58:07 23° SSW 23:00:42 60° W 23:05:04 10° N
Cosmos 1937 Rocket 3.4 22:58:31 28° S 23:01:20 76° ESE 23:06:33 10° NNE
COSMOS 2428 3.1 22:58:33 10° NNW 23:04:06 56° WSW 23:06:47 29° S
CZ-4C R/B 3.8 23:05:06 36° SW 23:05:56 43° W 23:09:17 10° NNW
Cosmos 1869 3.8 23:03:15 10° N 23:07:10 45° E 23:07:41 42° ESE
Cosmos 1455 2.3 23:03:25 10° N 23:07:10 55° E 23:07:33 52° ESE
Cosmos 2297 Rocket 2.7 23:10:25 35° SE 23:11:23 38° ESE 23:16:33 10° NE
ATLAS 3B R/B 3.8 23:05:01 10° NNW 23:11:32 37° NE 23:16:07 17° E
H-2A R/B 2.3 23:10:13 33° S 23:12:36 69° WSW 23:18:02 10° NNW
Cosmos 990 Rocket 3.9 23:13:38 40° S 23:15:29 72° ESE 23:20:38 10° NNE
NOSS 3-1 (C) 4.0 23:10:21 10° SW 23:16:09 60° NW 23:22:40 10° NNE
Lacrosse 4 Rocket 3.5 23:14:26 10° N 23:17:45 20° NE 23:19:36 16° E
Cosmos 2219 Rocket 2.1 23:14:52 10° NNW 23:20:29 82° WSW 23:22:26 43° SSE
Cosmos 1241 Rocket 4.3 23:20:29 31° SSW 23:23:35 69° ESE 23:29:48 10° NE
BREEZE-M DEB (TANK) 2.8 23:25:31 10° NW 23:27:40 53° NNE 23:27:42 53° NNE
ALOS 2 4.4 23:27:29 18° E 23:28:26 19° ENE 23:31:30 10° NNE
Cosmos 292 Rocket 4.3 23:26:23 10° NNW 23:30:58 48° WSW 23:32:10 39° SW
SAR-Lupe-2 4.4 23:31:37 40° WSW 23:31:52 41° W 23:35:17 10° NNW
Spot 4 4.2 23:31:38 42° SSW 23:33:00 59° W 23:37:48 10° NNW
Nadezhda 1 Rocket 4.1 23:28:37 10° NNW 23:34:38 65° W 23:37:15 35° SSW
Cosmos 1980 3.6 23:30:16 10° NNW 23:35:57 85° WSW 23:37:35 49° SSE
Cosmos 1726 4.5 23:33:35 10° NW 23:36:04 17° W 23:37:27 14° WSW
Terra 2.6 23:34:39 32° SW 23:36:09 42° W 23:40:40 10° NNW
Cosmos 1271 Rocket 4.3 23:34:25 10° NW 23:37:40 27° W 23:38:28 25° WSW
Cosmos 1346 4.3 23:39:16 39° NW 23:39:16 39° NW 23:41:49 10° N
H-2A R/B 4.2 23:37:38 10° NE 23:40:11 21° E 23:40:11 21° E
COSMOS 2455 3.4 23:37:35 10° NNW 23:43:28 51° NE 23:45:49 33° ESE
CZ-4B R/B 3.7 23:44:09 17° ENE 23:44:09 17° ENE 23:46:14 10° NNE
Cosmos 1125 Rocket 3.6 23:46:29 54° SE 23:47:11 59° ESE 23:52:24 10° NNE
BREEZE-M TANK 3.8 23:31:29 10° WSW 23:48:32 79° NNW 23:52:26 10° ENE
Cosmos 2237 Rocket 2.2 23:43:24 10° NNW 23:49:06 73° WSW 23:50:31 51° S
Cosmos 2082 3.8 23:49:09 32° SW 23:51:52 73° WNW 23:57:37 10° NNE
Cosmos 1703 Rocket 3.4 23:50:04 10° N 23:54:25 75° E 23:54:35 73° ESE
Cosmos 2221 Rocket 3.5 23:50:39 10° N 23:55:14 72° E 23:55:32 69° ESE
Okean 1-7 3.5 23:51:29 10° N 23:55:37 45° ENE 23:55:37 45° ENE
